Wetterstats.de || Aktuelle Messwerte || Aktuelle Wetterkarten NEU! || Radar / Satellit NEU! || Wetterarchiv || Langzeitwerte NEU! || Klim. Kenntage || Met. Ereignisse || Agrarwerte || Echtzeitwerte

Monatsübersicht für August 2020 Diagramm
 
Wetter Information zur Wetteranzeige
Zeitraffer
Tageslänge (hh:mm)
Höchsttemperatur in °C
Uhrzeit
Tiefsttemperatur in °C
Uhrzeit
Luftfeuchte (max., in %)
Uhrzeit
Luftfeuchte (min., in %)
Uhrzeit
Luftdruck (max., in hPa)
Uhrzeit
Luftdruck (min., in hPa)
Uhrzeit
Luftdruck (Ø, in hPa)
Regenrate (max, mm/h)
Uhrzeit
Niederschlag in mm
Verdunstung in mm
Solar in W/m² (Ø)
Solar in W/m² (max.)
UV-Index (max.)
Sonnenscheindauer (hh:mm)
Windrichtung (Ø)
Windstärke (Ø in km/h)
Windstärke (Ø in bft)
Windböe (max., in km/h)
Uhrzeit
Windböe (max., in bft)
Uhrzeit
Taupunkt (max., in °C)
Uhrzeit
Taupunkt (min., in °C)
Uhrzeit
Windchill (min., in °C)
Uhrzeit
Gewitterindex (max.)
Uhrzeit
Waldbrandindex (max.)
Uhrzeit
Graslandfeuerindex (max.)
Uhrzeit
Staubsturm-Index (max.)
Uhrzeit
01
Zeitraffer
15:35
25.0
20:15 Uhr
21.1
23:50 Uhr

48
23:55 Uhr
38
20:15 Uhr
1014.6
20:55 Uhr

1014.4
22:20 Uhr
1014.5
0,000
20:15 Uhr
0,000
0.178
13
21
20:15 Uhr
0.0
20:15 Uhr

00:00:00
5,9
1
19,3
23:00 Uhr

3
10.2
20:50 Uhr
9.1
23:20 Uhr
20.5
23:10 Uhr
2
20:15 Uhr

00:00 Uhr

00:00 Uhr

00:00 Uhr
02
Zeitraffer
15:32
26.9
11:10 Uhr
18.4
07:00 Uhr

95
23:40 Uhr
42
11:15 Uhr
1014.4
00:00 Uhr

1011.7
17:00 Uhr
1012.7
2,400
15:25 Uhr
1,200
2.591
194
830
11:05 Uhr
4.3
11:05 Uhr

02:45:00
5,2
1
22,5
10:45 Uhr

4
17.8
17:45 Uhr
9.5
00:05 Uhr
18.1
21:55 Uhr
5
23:05 Uhr

00:00 Uhr

00:00 Uhr

00:00 Uhr
03
Zeitraffer
15:28
21.1
17:45 Uhr
15.1
23:50 Uhr

96
00:45 Uhr
58
18:55 Uhr
1012.3
00:00 Uhr

1009.9
18:40 Uhr
1011.2
2,400
02:45 Uhr
1,000
2.007
186
608
16:15 Uhr
3.1
16:15 Uhr

02:00:00
5,3
1
25,7
15:15 Uhr

4
18.0
01:05 Uhr
8.9
23:40 Uhr
15.1
23:50 Uhr
9
00:00 Uhr

00:00 Uhr

00:00 Uhr

00:00 Uhr
04
Zeitraffer
15:25
22.8
14:20 Uhr
12.4
06:00 Uhr

83
05:55 Uhr
38
14:25 Uhr
1017.8
23:30 Uhr

1011.1
01:05 Uhr
1013.5
0,000
00:00 Uhr
0,000
3.175
265
984
12:55 Uhr
5.9
13:05 Uhr

04:55:00
5,4
1
30,6
14:25 Uhr

5
13.1
10:30 Uhr
7.2
14:25 Uhr
12.4
06:00 Uhr
0
00:00 Uhr

00:00 Uhr

00:00 Uhr

00:00 Uhr
05
Zeitraffer
15:22
27.6
15:10 Uhr
9.9
04:00 Uhr

89
06:30 Uhr
30
15:10 Uhr
1020.8
23:55 Uhr

1017.6
00:10 Uhr
1019.2
0,000
00:00 Uhr
0,000
4.648
404
933
14:10 Uhr
5.9
14:00 Uhr

11:05:00
4,2
1
24,1
18:30 Uhr

4
13.1
09:10 Uhr
7.4
15:00 Uhr
9.9
04:00 Uhr
0
00:00 Uhr

00:00 Uhr

00:00 Uhr

00:00 Uhr
06
Zeitraffer
15:18
30.2
15:35 Uhr
13.4
06:05 Uhr

78
06:10 Uhr
31
14:25 Uhr
1023.5
10:00 Uhr

1020.8
00:00 Uhr
1022.2
0,000
00:00 Uhr
0,000
5.791
441
805
13:15 Uhr
5.7
12:45 Uhr

12:15:00
5,8
1
24,1
14:15 Uhr

4
13.5
23:00 Uhr
9.4
06:00 Uhr
13.4
06:05 Uhr
2
12:00 Uhr

00:00 Uhr

00:00 Uhr

00:00 Uhr
07
Zeitraffer
15:15
33.3
16:05 Uhr
15.7
05:15 Uhr

81
05:10 Uhr
36
16:10 Uhr
1023.3
08:00 Uhr

1020.2
18:55 Uhr
1021.9
0,000
00:00 Uhr
0,000
5.182
395
784
12:45 Uhr
5.2
12:35 Uhr

10:00:00
5,3
1
35,4
13:55 Uhr

5
18.7
14:45 Uhr
12.4
04:35 Uhr
15.7
05:15 Uhr
6
14:05 Uhr

00:00 Uhr

00:00 Uhr

00:00 Uhr
08
Zeitraffer
15:11
35.2
14:55 Uhr
20.1
05:40 Uhr

74
06:10 Uhr
22
15:10 Uhr
1021.8
07:10 Uhr

1018.3
19:10 Uhr
1020.2
0,000
00:00 Uhr
0,000
5.791
416
788
13:05 Uhr
5.2
13:05 Uhr

11:30:00
5,2
1
25,7
13:35 Uhr

4
18.3
10:25 Uhr
9.9
15:10 Uhr
20.1
05:40 Uhr
7
09:05 Uhr

00:00 Uhr

00:00 Uhr

00:00 Uhr
09
Zeitraffer
15:07
35.4
13:10 Uhr
20.2
05:40 Uhr

73
05:40 Uhr
28
13:15 Uhr
1019.1
07:55 Uhr

1016.5
18:10 Uhr
1018.1
0,000
00:00 Uhr
0,000
4.547
323
870
13:30 Uhr
5.1
12:40 Uhr

07:45:00
5,4
1
33,8
14:00 Uhr

5
18.4
08:50 Uhr
13.5
13:20 Uhr
20.2
05:40 Uhr
7
00:00 Uhr

00:00 Uhr

00:00 Uhr

00:00 Uhr
10
Zeitraffer
15:04
31.1
14:10 Uhr
19.6
05:35 Uhr

77
04:35 Uhr
38
14:40 Uhr
1018.9
23:35 Uhr

1017.3
16:50 Uhr
1018.0
0,000
00:00 Uhr
0,000
3.734
291
902
14:45 Uhr
4.9
14:25 Uhr

05:35:00
4,3
1
29,0
14:50 Uhr

4
18.7
13:45 Uhr
14.1
15:20 Uhr
19.6
05:35 Uhr
7
00:00 Uhr

00:00 Uhr

00:00 Uhr

00:00 Uhr
11
Zeitraffer
15:00
32.1
15:15 Uhr
16.9
05:10 Uhr

85
05:15 Uhr
30
13:35 Uhr
1020.5
09:50 Uhr

1018.6
19:00 Uhr
1019.7
0,000
00:00 Uhr
0,000
5.664
422
773
13:25 Uhr
5.2
12:45 Uhr

11:30:00
6,6
1
25,7
11:35 Uhr

4
18.5
10:30 Uhr
11.2
18:45 Uhr
16.9
05:10 Uhr
7
00:00 Uhr

00:00 Uhr

00:00 Uhr

00:00 Uhr
12
Zeitraffer
14:56
31.2
15:10 Uhr
16.0
06:10 Uhr

74
06:10 Uhr
25
14:10 Uhr
1021.0
07:50 Uhr

1017.3
19:00 Uhr
1019.6
0,000
00:00 Uhr
0,000
5.918
435
791
13:05 Uhr
5.4
12:45 Uhr

11:35:00
6,5
1
29,0
17:35 Uhr

4
14.3
10:15 Uhr
7.8
17:30 Uhr
16.0
06:10 Uhr
4
00:00 Uhr

00:00 Uhr

00:00 Uhr

00:00 Uhr
13
Zeitraffer
14:53
32.3
14:55 Uhr
13.8
06:10 Uhr

75
06:10 Uhr
28
17:30 Uhr
1017.9
00:00 Uhr

1012.9
18:40 Uhr
1015.1
0,000
00:00 Uhr
0,000
4.851
367
860
14:30 Uhr
5.0
12:40 Uhr

08:20:00
4,4
1
22,5
12:25 Uhr

4
13.8
14:50 Uhr
7.9
00:05 Uhr
13.8
06:10 Uhr
2
13:05 Uhr

00:00 Uhr

00:00 Uhr

00:00 Uhr
14
Zeitraffer
14:49
26.8
16:10 Uhr
17.6
09:30 Uhr

86
06:25 Uhr
38
00:00 Uhr
1014.0
11:30 Uhr

1012.5
17:25 Uhr
1013.4
2,400
04:45 Uhr
2,800
2.032
162
668
15:25 Uhr
3.4
15:25 Uhr

02:10:00
3,0
1
14,5
08:15 Uhr

3
17.6
15:40 Uhr
8.9
00:10 Uhr
17.2
09:20 Uhr
6
19:05 Uhr

00:00 Uhr

00:00 Uhr

00:00 Uhr
15
Zeitraffer
14:45
29.7
15:50 Uhr
18.1
23:55 Uhr

96
20:10 Uhr
45
15:50 Uhr
1015.9
23:50 Uhr

1013.5
05:10 Uhr
1014.5
31,200
16:50 Uhr
6,600
3.023
272
856
12:55 Uhr
4.7
13:10 Uhr

04:00:00
3,6
1
29,0
16:45 Uhr

4
20.9
20:10 Uhr
15.5
06:50 Uhr
18.1
23:55 Uhr
8
00:00 Uhr

00:00 Uhr

00:00 Uhr

00:00 Uhr


 
Wetter Information zur Wetteranzeige
Zeitraffer
Tageslänge (hh:mm)
Höchsttemperatur in °C
Uhrzeit
Tiefsttemperatur in °C
Uhrzeit
Luftfeuchte (max., in %)
Uhrzeit
Luftfeuchte (min., in %)
Uhrzeit
Luftdruck (max., in hPa)
Uhrzeit
Luftdruck (min., in hPa)
Uhrzeit
Luftdruck (Ø, in hPa)
Regenrate (max, mm/h)
Uhrzeit
Niederschlag in mm
Verdunstung in mm
Solar in W/m² (Ø)
Solar in W/m² (max.)
UV-Index (max.)
Sonnenscheindauer (hh:mm)
Windrichtung (Ø)
Windstärke (Ø in km/h)
Windstärke (Ø in bft)
Windböe (max., in km/h)
Uhrzeit
Windböe (max., in bft)
Uhrzeit
Taupunkt (max., in °C)
Uhrzeit
Taupunkt (min., in °C)
Uhrzeit
Windchill (min., in °C)
Uhrzeit
Gewitterindex (max.)
Uhrzeit
Waldbrandindex (max.)
Uhrzeit
Graslandfeuerindex (max.)
Uhrzeit
Staubsturm-Index (max.)
Uhrzeit
16
Zeitraffer
14:42
30.1
15:40 Uhr
14.8
05:55 Uhr

94
02:35 Uhr
24
15:35 Uhr
1016.4
09:00 Uhr

1012.9
18:55 Uhr
1014.9
0,000
00:00 Uhr
0,000
5.537
428
770
13:05 Uhr
5.1
12:45 Uhr

11:35:00
6,2
1
32,2
12:35 Uhr

5
16.3
00:00 Uhr
6.9
16:05 Uhr
14.8
05:55 Uhr
7
00:00 Uhr

00:00 Uhr

00:00 Uhr

00:00 Uhr
17
Zeitraffer
14:38
31.1
15:45 Uhr
14.1
05:50 Uhr

85
06:10 Uhr
30
15:00 Uhr
1013.2
00:00 Uhr

1008.2
19:50 Uhr
1010.4
0,000
00:00 Uhr
0,000
5.207
414
849
13:20 Uhr
5.1
13:20 Uhr

11:20:00
5,6
1
27,4
12:35 Uhr

4
15.9
11:10 Uhr
10.6
00:00 Uhr
14.1
05:50 Uhr
4
13:00 Uhr

00:00 Uhr

00:00 Uhr

00:00 Uhr
18
Zeitraffer
14:34
23.6
14:55 Uhr
17.4
03:00 Uhr

84
13:10 Uhr
64
15:00 Uhr
1009.9
23:55 Uhr

1008.0
05:00 Uhr
1008.8
2,400
11:45 Uhr
0,600
1.905
167
580
14:50 Uhr
3.3
14:50 Uhr

02:30:00
4,1
1
22,5
09:45 Uhr

4
18.1
13:25 Uhr
13.8
01:50 Uhr
17.4
03:00 Uhr
7
16:05 Uhr

00:00 Uhr

00:00 Uhr

00:00 Uhr
19
Zeitraffer
14:31
26.2
13:15 Uhr
15.3
23:55 Uhr

84
03:15 Uhr
49
12:45 Uhr
1010.9
10:30 Uhr

1009.4
02:05 Uhr
1010.2
0,000
00:00 Uhr
0,000
3.099
287
926
12:35 Uhr
5.1
13:10 Uhr

05:15:00
3,8
1
24,1
13:50 Uhr

4
16.6
10:25 Uhr
12.5
23:55 Uhr
15.3
23:55 Uhr
7
00:00 Uhr

00:00 Uhr

00:00 Uhr

00:00 Uhr
20
Zeitraffer
14:26
31.2
15:40 Uhr
12.7
05:30 Uhr

92
05:50 Uhr
30
15:45 Uhr
1012.4
23:50 Uhr

1010.5
00:10 Uhr
1011.5
0,000
00:05 Uhr
0,000
4.394
377
803
14:00 Uhr
5.3
12:50 Uhr

09:05:00
4,1
1
32,2
15:45 Uhr

5
16.8
09:55 Uhr
11.3
05:00 Uhr
12.7
05:30 Uhr
5
12:05 Uhr

00:00 Uhr

00:00 Uhr

00:00 Uhr
21
Zeitraffer
14:22
35.2
15:50 Uhr
18.7
05:45 Uhr

71
05:20 Uhr
29
16:55 Uhr
1012.7
06:00 Uhr

1010.1
19:30 Uhr
1011.6
0,000
00:00 Uhr
0,000
5.563
396
742
12:50 Uhr
5.3
12:50 Uhr

10:30:00
6,8
1
37,0
13:05 Uhr

5
17.4
10:45 Uhr
13.3
05:05 Uhr
18.1
06:15 Uhr
6
12:05 Uhr

00:00 Uhr

00:00 Uhr

00:00 Uhr
22
Zeitraffer
14:19
26.9
00:00 Uhr
18.9
22:35 Uhr

95
11:15 Uhr
50
00:00 Uhr
1014.5
09:50 Uhr

1011.1
00:00 Uhr
1013.0
31,200
09:05 Uhr
9,800
1.626
125
454
14:10 Uhr
3.7
14:10 Uhr

01:10:00
6,2
1
32,2
08:50 Uhr

5
20.1
11:15 Uhr
15.3
01:05 Uhr
17.8
09:40 Uhr
9
13:05 Uhr

00:00 Uhr

00:00 Uhr

00:00 Uhr
23
Zeitraffer
14:15
25.8
14:05 Uhr
15.3
05:20 Uhr

95
01:45 Uhr
37
14:05 Uhr
1014.7
07:50 Uhr

1012.8
15:55 Uhr
1013.9
4,800
16:35 Uhr
1,600
3.378
293
861
13:50 Uhr
5.3
13:00 Uhr

05:35:00
6,5
1
37,0
12:55 Uhr

5
17.7
00:00 Uhr
9.7
14:10 Uhr
15.3
05:20 Uhr
9
00:00 Uhr

00:00 Uhr

00:00 Uhr

00:00 Uhr
24
Zeitraffer
14:11
22.8
14:10 Uhr
13.6
06:25 Uhr

87
06:45 Uhr
52
13:00 Uhr
1015.4
10:10 Uhr

1012.3
19:30 Uhr
1014.1
2,400
09:45 Uhr
0,200
3.099
298
988
13:25 Uhr
5.2
13:00 Uhr

06:15:00
6,2
1
29,0
13:25 Uhr

4
14.7
16:55 Uhr
11.3
06:25 Uhr
13.2
06:25 Uhr
4
18:05 Uhr

00:00 Uhr

00:00 Uhr

00:00 Uhr
25
Zeitraffer
14:07
23.3
16:50 Uhr
12.9
05:40 Uhr

82
05:10 Uhr
39
15:10 Uhr
1014.1
09:35 Uhr

1008.0
23:50 Uhr
1012.4
0,000
00:00 Uhr
0,000
3.810
348
884
12:05 Uhr
5.1
12:05 Uhr

07:15:00
6,5
1
32,2
10:50 Uhr

5
11.9
09:05 Uhr
8.3
15:10 Uhr
11.4
06:10 Uhr
2
00:00 Uhr

00:00 Uhr

00:00 Uhr

00:00 Uhr
26
Zeitraffer
14:03
21.7
10:00 Uhr
15.1
07:15 Uhr

91
23:15 Uhr
53
10:55 Uhr
1008.1
00:00 Uhr

1002.0
05:05 Uhr
1004.5
7,200
05:35 Uhr
8,400
1.981
146
605
09:55 Uhr
2.6
09:50 Uhr

01:50:00
10,5
2
51,5
18:25 Uhr

6
14.8
08:35 Uhr
11.0
11:05 Uhr
10.5
23:35 Uhr
4
09:00 Uhr

00:00 Uhr

00:00 Uhr

00:00 Uhr
27
Zeitraffer
13:59
20.1
16:15 Uhr
11.4
23:35 Uhr

92
03:15 Uhr
51
15:40 Uhr
1013.9
20:30 Uhr

1007.4
00:00 Uhr
1011.5
2,400
00:20 Uhr
1,000
2.896
245
770
11:30 Uhr
4.2
11:30 Uhr

04:40:00
10,8
2
46,7
09:25 Uhr

6
14.1
01:35 Uhr
8.7
23:25 Uhr
10.1
05:00 Uhr
5
00:00 Uhr

00:00 Uhr

00:00 Uhr

00:00 Uhr
28
Zeitraffer
13:56
22.9
16:20 Uhr
11.2
01:05 Uhr

94
11:20 Uhr
60
16:45 Uhr
1013.0
00:15 Uhr

1002.0
23:05 Uhr
1006.6
4,800
10:05 Uhr
3,600
2.134
231
986
13:25 Uhr
4.8
13:25 Uhr

04:25:00
5,5
1
30,6
08:05 Uhr

5
16.0
15:15 Uhr
8.7
00:25 Uhr
7.8
08:05 Uhr
2
15:05 Uhr

00:00 Uhr

00:00 Uhr

00:00 Uhr
29
Zeitraffer
13:51
23.4
14:55 Uhr
16.6
02:25 Uhr

91
01:20 Uhr
45
14:50 Uhr
1008.2
22:40 Uhr

1001.0
02:45 Uhr
1004.7
2,400
00:40 Uhr
0,200
2.819
256
860
13:20 Uhr
4.3
12:15 Uhr

03:50:00
6,2
1
30,6
14:20 Uhr

5
15.6
00:35 Uhr
10.0
15:00 Uhr
15.2
07:30 Uhr
6
00:00 Uhr

00:00 Uhr

00:00 Uhr

00:00 Uhr
30
Zeitraffer
13:47
22.5
11:55 Uhr
15.6
23:35 Uhr

95
23:20 Uhr
61
13:50 Uhr
1008.9
10:00 Uhr

1007.1
17:50 Uhr
1007.9
24,000
19:15 Uhr
14,800
1.702
162
796
11:10 Uhr
4.4
11:45 Uhr

01:40:00
4,7
1
20,9
21:45 Uhr

4
16.2
10:25 Uhr
11.3
00:05 Uhr
14.2
22:40 Uhr
5
18:00 Uhr

00:00 Uhr

00:00 Uhr

00:00 Uhr
31
Zeitraffer
13:44
22.2
14:15 Uhr
12.0
23:00 Uhr

97
03:55 Uhr
55
14:40 Uhr
1017.9
20:55 Uhr

1008.4
01:00 Uhr
1013.8
12,000
00:00 Uhr
19,200
2.032
247
965
13:40 Uhr
4.7
12:25 Uhr

03:15:00
4,6
1
25,7
17:05 Uhr

4
16.4
11:40 Uhr
10.2
16:05 Uhr
12.0
23:00 Uhr
6
00:00 Uhr

00:00 Uhr

00:00 Uhr

00:00 Uhr
Stationsstandorte || Wetterblog || Wissenswertes || Downloads || Seitenhistorie || Partner || Impressum / Datenschutz